datetime,release volume
1974-10-25,13.8843
1974-10-26,18.6843
1974-10-27,18.6843
1974-10-28,18.6843
1974-10-29,18.6843
1974-10-30,18.6843
1974-10-31,18.6843
1974-11-01,18.6843
1974-11-02,18.6843
1974-11-03,18.6843
1974-11-04,18.6843
1974-11-05,18.6843
1974-11-06,18.6843
1974-11-07,18.6843
1974-11-08,18.6843
1974-11-09,18.6843
1974-11-10,18.6843
1974-11-11,18.6843
1974-11-12,18.6843
1974-11-13,18.6843
1974-11-14,18.6843
1974-11-15,18.6843
1974-11-16,18.6843
1974-11-17,18.6843
1974-11-18,18.6843
1974-11-19,18.6843
1974-11-20,18.6843
1974-11-21,18.6843
1974-11-22,18.6843
1974-11-23,18.6843
1974-11-24,18.6843
1974-11-25,18.6843
1974-11-26,18.6843
1974-11-27,18.6843
1974-11-28,18.6843
1974-11-29,18.6843
1974-11-30,18.6843
1974-12-01,18.6843
1974-12-02,18.6843
1974-12-03,18.6843
1974-12-04,18.6843
1974-12-05,18.6843
1974-12-06,18.6843
1974-12-07,18.6843
1974-12-08,18.6843
1974-12-09,18.6843
1974-12-10,18.6843
1974-12-11,18.6843
1974-12-12,18.6843
1974-12-13,18.6843
1974-12-14,18.6843
1974-12-15,18.6843
1974-12-16,18.6843
1974-12-17,18.6843
1974-12-18,18.6843
1974-12-19,18.6843
1974-12-20,18.6843
1974-12-21,18.6843
1974-12-22,18.6843
1974-12-23,18.6843
1974-12-24,18.6843
1974-12-25,18.6843
1974-12-26,37.86446
1974-12-27,37.86446
1974-12-28,37.86446
1974-12-29,37.86446
1974-12-30,37.86446
1974-12-31,37.86446
1975-01-01,37.86446
1975-01-02,37.86446
1975-01-03,37.86446
1975-01-04,37.86446
1975-01-05,37.86446
1975-01-06,37.86446
1975-01-07,37.86446
1975-01-08,37.86446
1975-01-09,37.86446
1975-01-10,37.86446
1975-01-11,37.86446
1975-01-12,37.86446
1975-01-13,37.86446
1975-01-14,37.86446
1975-01-15,37.86446
1975-01-16,37.86446
1975-01-17,37.86446
1975-01-18,37.86446
1975-01-19,37.86446
1975-01-20,37.86446
1975-01-21,37.86446
1975-01-22,37.86446
1975-01-23,37.86446
1975-01-24,37.86446
1975-01-25,37.86446
1975-01-26,36.77355
1975-01-27,36.77355
1975-01-28,36.77355
1975-01-29,36.77355
1975-01-30,36.77355
1975-01-31,36.77355
1975-02-01,36.77355
1975-02-02,36.77355
1975-02-03,36.77355
1975-02-04,36.77355
1975-02-05,36.77355
1975-02-06,36.77355
1975-02-07,36.77355
1975-02-08,36.77355
1975-02-09,36.77355
1975-02-10,36.77355
1975-02-11,36.77355
1975-02-12,36.77355
1975-02-13,36.77355
1975-02-14,36.77355
1975-02-15,36.77355
1975-02-16,36.77355
1975-02-17,36.77355
1975-02-18,36.77355
1975-02-19,36.77355
1975-02-20,36.77355
1975-02-21,36.77355
1975-02-22,36.77355
1975-02-23,36.77355
1975-02-24,36.77355
1975-02-25,36.77355
1975-02-26,41.99008
1975-02-27,41.99008
1975-02-28,41.99008
1975-03-01,41.99008
1975-03-02,41.99008
1975-03-03,41.99008
1975-03-04,41.99008
1975-03-05,41.99008
1975-03-06,41.99008
1975-03-07,41.99008
1975-03-08,41.99008
1975-03-09,41.99008
1975-03-10,41.99008
1975-03-11,41.99008
1975-03-12,41.99008
1975-03-13,41.99008
1975-03-14,41.99008
1975-03-15,41.99008
1975-03-16,41.99008
1975-03-17,41.99008
1975-03-18,41.99008
1975-03-19,41.99008
1975-03-20,41.99008
1975-03-21,41.99008
1975-03-22,41.99008
1975-03-23,41.99008
1975-03-24,41.99008
1975-03-25,41.99008
1975-03-26,62.38017
1975-03-27,62.38017
1975-03-28,62.38017
1975-03-29,62.38017
1975-03-30,62.38017
1975-03-31,62.38017
1975-04-01,62.38017
1975-04-02,62.38017
1975-04-03,62.38017
1975-04-04,62.38017
1975-04-05,62.38017
1975-04-06,62.38017
1975-04-07,62.38017
1975-04-08,62.38017
1975-04-09,62.38017
1975-04-10,62.38017
1975-04-11,62.38017
1975-04-12,62.38017
1975-04-13,62.38017
1975-04-14,62.38017
1975-04-15,62.38017
1975-04-16,62.38017
1975-04-17,62.38017
1975-04-18,62.38017
1975-04-19,62.38017
1975-04-20,62.38017
1975-04-21,62.38017
1975-04-22,62.38017
1975-04-23,62.38017
1975-04-24,62.38017
1975-04-25,62.38017
1975-04-26,1279.04132
1975-04-27,1279.04132
1975-04-28,1279.04132
1975-04-29,1279.04132
1975-04-30,1279.04132
1975-05-01,1279.04132
1975-05-02,1279.04132
1975-05-03,1279.04132
1975-05-04,1279.04132
1975-05-05,1279.04132
1975-05-06,1279.04132
1975-05-07,1279.04132
1975-05-08,1279.04132
1975-05-09,1279.04132
1975-05-10,1279.04132
1975-05-11,1279.04132
1975-05-12,1279.04132
1975-05-13,1279.04132
1975-05-14,1279.04132
1975-05-15,1279.04132
1975-05-16,1279.04132
1975-05-17,1279.04132
1975-05-18,1279.04132
1975-05-19,1279.04132
1975-05-20,1279.04132
1975-05-21,1279.04132
1975-05-22,1279.04132
1975-05-23,1279.04132
1975-05-24,1279.04132
1975-05-25,1279.04132
1975-05-26,901.60661
1975-05-27,901.60661
1975-05-28,901.60661
1975-05-29,901.60661
1975-05-30,901.60661
1975-05-31,901.60661
1975-06-01,901.60661
1975-06-02,901.60661
1975-06-03,901.60661
1975-06-04,901.60661
1975-06-05,901.60661
1975-06-06,901.60661
1975-06-07,901.60661
1975-06-08,901.60661
1975-06-09,901.60661
1975-06-10,901.60661
1975-06-11,901.60661
1975-06-12,901.60661
1975-06-13,901.60661
1975-06-14,901.60661
1975-06-15,901.60661
1975-06-16,901.60661
1975-06-17,901.60661
1975-06-18,901.60661
1975-06-19,901.60661
1975-06-20,901.60661
1975-06-21,901.60661
1975-06-22,901.60661
1975-06-23,901.60661
1975-06-24,901.60661
1975-06-25,901.60661
1975-06-26,371.66281
1975-06-27,371.66281
1975-06-28,371.66281
1975-06-29,371.66281
1975-06-30,371.66281
1975-07-01,371.66281
1975-07-02,371.66281
1975-07-03,371.66281
1975-07-04,371.66281
1975-07-05,371.66281
1975-07-06,371.66281
1975-07-07,371.66281
1975-07-08,371.66281
1975-07-09,371.66281
1975-07-10,371.66281
1975-07-11,371.66281
1975-07-12,371.66281
1975-07-13,371.66281
1975-07-14,371.66281
1975-07-15,371.66281
1975-07-16,371.66281
1975-07-17,371.66281
1975-07-18,371.66281
1975-07-19,371.66281
1975-07-20,371.66281
1975-07-21,371.66281
1975-07-22,371.66281
1975-07-23,371.66281
1975-07-24,371.66281
1975-07-25,371.66281
1975-07-26,162.84298
1975-07-27,162.84298
1975-07-28,162.84298
1975-07-29,162.84298
1975-07-30,162.84298
1975-07-31,162.84298
1975-08-01,162.84298
1975-08-02,162.84298
1975-08-03,162.84298
1975-08-04,162.84298
1975-08-05,162.84298
1975-08-06,162.84298
1975-08-07,162.84298
1975-08-08,162.84298
1975-08-09,162.84298
1975-08-10,162.84298
1975-08-11,162.84298
1975-08-12,162.84298
1975-08-13,162.84298
1975-08-14,162.84298
1975-08-15,162.84298
1975-08-16,162.84298
1975-08-17,162.84298
1975-08-18,162.84298
1975-08-19,162.84298
1975-08-20,162.84298
1975-08-21,162.84298
1975-08-22,162.84298
1975-08-23,162.84298
1975-08-24,162.84298
1975-08-25,162.84298
1975-08-26,216.63471
1975-08-27,216.63471
1975-08-28,216.63471
1975-08-29,216.63471
1975-08-30,216.63471
1975-08-31,216.63471
1975-09-01,216.63471
1975-09-02,216.63471
1975-09-03,216.63471
1975-09-04,216.63471
1975-09-05,216.63471
1975-09-06,216.63471
1975-09-07,216.63471
1975-09-08,216.63471
1975-09-09,216.63471
1975-09-10,216.63471
1975-09-11,216.63471
1975-09-12,216.63471
1975-09-13,216.63471
1975-09-14,216.63471
1975-09-15,216.63471
1975-09-16,216.63471
1975-09-17,216.63471
1975-09-18,216.63471
1975-09-19,216.63471
1975-09-20,216.63471
1975-09-21,216.63471
1975-09-22,216.63471
1975-09-23,216.63471
1975-09-24,216.63471
1975-09-25,216.63471
1975-09-26,86.20165
1975-09-27,86.20165
1975-09-28,86.20165
1975-09-29,86.20165
1975-09-30,86.20165
1975-10-01,86.20165
1975-10-02,86.20165
1975-10-03,86.20165
1975-10-04,86.20165
1975-10-05,86.20165
1975-10-06,86.20165
1975-10-07,86.20165
1975-10-08,86.20165
1975-10-09,86.20165
1975-10-10,86.20165
1975-10-11,86.20165
1975-10-12,86.20165
1975-10-13,86.20165
1975-10-14,86.20165
1975-10-15,86.20165
1975-10-16,86.20165
1975-10-17,86.20165
1975-10-18,86.20165
1975-10-19,86.20165
1975-10-20,86.20165
1975-10-21,86.20165
1975-10-22,86.20165
1975-10-23,86.20165
1975-10-24,86.20165
1975-10-25,86.20165
1975-10-26,92.90579
1975-10-27,92.90579
1975-10-28,92.90579
1975-10-29,92.90579
1975-10-30,92.90579
1975-10-31,92.90579
1975-11-01,92.90579
1975-11-02,92.90579
1975-11-03,92.90579
1975-11-04,92.90579
1975-11-05,92.90579
1975-11-06,92.90579
1975-11-07,92.90579
1975-11-08,92.90579
1975-11-09,92.90579
1975-11-10,92.90579
1975-11-11,92.90579
1975-11-12,92.90579
1975-11-13,92.90579
1975-11-14,92.90579
1975-11-15,92.90579
1975-11-16,92.90579
1975-11-17,92.90579
1975-11-18,92.90579
1975-11-19,92.90579
1975-11-20,92.90579
1975-11-21,92.90579
1975-11-22,92.90579
1975-11-23,92.90579
1975-11-24,92.90579
1975-11-25,92.90579
1975-11-26,40.00661
1975-11-27,40.00661
1975-11-28,40.00661
1975-11-29,40.00661
1975-11-30,40.00661
1975-12-01,40.00661
1975-12-02,40.00661
1975-12-03,40.00661
1975-12-04,40.00661
1975-12-05,40.00661
1975-12-06,40.00661
1975-12-07,40.00661
1975-12-08,40.00661
1975-12-09,40.00661
1975-12-10,40.00661
1975-12-11,40.00661
1975-12-12,40.00661
1975-12-13,40.00661
1975-12-14,40.00661
1975-12-15,40.00661
1975-12-16,40.00661
1975-12-17,40.00661
1975-12-18,40.00661
1975-12-19,40.00661
1975-12-20,40.00661
1975-12-21,40.00661
1975-12-22,40.00661
1975-12-23,40.00661
1975-12-24,40.00661
1975-12-25,40.00661
1975-12-26,40.00661
1975-12-27,40.00661
1975-12-28,40.00661
1975-12-29,40.00661
1975-12-30,40.00661
1975-12-31,40.00661
1976-01-01,40.00661
1976-01-02,40.00661
1976-01-03,40.00661
1976-01-04,40.00661
1976-01-05,40.00661
1976-01-06,40.00661
1976-01-07,40.00661
1976-01-08,40.00661
1976-01-09,40.00661
1976-01-10,40.00661
1976-01-11,40.00661
1976-01-12,40.00661
1976-01-13,40.00661
1976-01-14,40.00661
1976-01-15,40.00661
1976-01-16,40.00661
1976-01-17,40.00661
1976-01-18,40.00661
1976-01-19,40.00661
1976-01-20,40.00661
1976-01-21,40.00661
1976-01-22,40.00661
1976-01-23,40.00661
1976-01-24,40.00661
1976-01-25,40.00661
1976-01-26,40.00661
1976-01-27,40.00661
1976-01-28,40.00661
1976-01-29,40.00661
1976-01-30,40.00661
1976-01-31,40.00661
1976-02-01,40.00661
1976-02-02,40.00661
1976-02-03,40.00661
1976-02-04,40.00661
1976-02-05,40.00661
1976-02-06,40.00661
1976-02-07,40.00661
1976-02-08,40.00661
1976-02-09,40.00661
1976-02-10,40.00661
1976-02-11,40.00661
1976-02-12,40.00661
1976-02-13,40.00661
1976-02-14,40.00661
1976-02-15,40.00661
1976-02-16,40.00661
1976-02-17,40.00661
1976-02-18,40.00661
1976-02-19,40.00661
1976-02-20,40.00661
1976-02-21,40.00661
1976-02-22,40.00661
1976-02-23,40.00661
1976-02-24,40.00661
1976-02-25,40.00661
1976-02-26,42.76364
1976-02-27,42.76364
1976-02-28,42.76364
1976-02-29,42.76364
1976-03-01,42.76364
1976-03-02,42.76364
1976-03-03,42.76364
1976-03-04,42.76364
1976-03-05,42.76364
1976-03-06,42.76364
1976-03-07,42.76364
1976-03-08,42.76364
1976-03-09,42.76364
1976-03-10,42.76364
1976-03-11,42.76364
1976-03-12,42.76364
1976-03-13,42.76364
1976-03-14,42.76364
1976-03-15,42.76364
1976-03-16,42.76364
1976-03-17,42.76364
1976-03-18,42.76364
1976-03-19,42.76364
1976-03-20,42.76364
1976-03-21,42.76364
1976-03-22,42.76364
1976-03-23,42.76364
1976-03-24,42.76364
1976-03-25,42.76364
1976-03-26,335.66281
1976-03-27,335.66281
1976-03-28,335.66281
1976-03-29,335.66281
1976-03-30,335.66281
1976-03-31,335.66281
1976-04-01,335.66281
1976-04-02,335.66281
1976-04-03,335.66281
1976-04-04,335.66281
1976-04-05,335.66281
1976-04-06,335.66281
1976-04-07,335.66281
1976-04-08,335.66281
1976-04-09,335.66281
1976-04-10,335.66281
1976-04-11,335.66281
1976-04-12,335.66281
1976-04-13,335.66281
1976-04-14,335.66281
1976-04-15,335.66281
1976-04-16,335.66281
1976-04-17,335.66281
1976-04-18,335.66281
1976-04-19,335.66281
1976-04-20,335.66281
1976-04-21,335.66281
1976-04-22,335.66281
1976-04-23,335.66281
1976-04-24,335.66281
1976-04-25,335.66281
1976-04-26,637.66612
1976-04-27,637.66612
1976-04-28,637.66612
1976-04-29,637.66612
1976-04-30,637.66612
1976-05-01,637.66612
1976-05-02,637.66612
1976-05-03,637.66612
1976-05-04,637.66612
1976-05-05,637.66612
1976-05-06,637.66612
1976-05-07,637.66612
1976-05-08,637.66612
1976-05-09,637.66612
1976-05-10,637.66612
1976-05-11,637.66612
1976-05-12,637.66612
1976-05-13,637.66612
1976-05-14,637.66612
1976-05-15,637.66612
1976-05-16,637.66612
1976-05-17,637.66612
1976-05-18,637.66612
1976-05-19,637.66612
1976-05-20,637.66612
1976-05-21,637.66612
1976-05-22,637.66612
1976-05-23,637.66612
1976-05-24,637.66612
1976-05-25,637.66612
1976-05-26,437.27603
1976-05-27,437.27603
1976-05-28,437.27603
1976-05-29,437.27603
1976-05-30,437.27603
1976-05-31,437.27603
1976-06-01,437.27603
1976-06-02,437.27603
1976-06-03,437.27603
1976-06-04,437.27603
1976-06-05,437.27603
1976-06-06,437.27603
1976-06-07,437.27603
1976-06-08,437.27603
1976-06-09,437.27603
1976-06-10,437.27603
1976-06-11,437.27603
1976-06-12,437.27603
1976-06-13,437.27603
1976-06-14,437.27603
1976-06-15,437.27603
1976-06-16,437.27603
1976-06-17,437.27603
1976-06-18,437.27603
1976-06-19,437.27603
1976-06-20,437.27603
1976-06-21,437.27603
1976-06-22,437.27603
1976-06-23,437.27603
1976-06-24,437.27603
1976-06-25,437.27603
1976-06-26,193.86446
1976-06-27,193.86446
1976-06-28,193.86446
1976-06-29,193.86446
1976-06-30,193.86446
1976-07-01,193.86446
1976-07-02,193.86446
1976-07-03,193.86446
1976-07-04,193.86446
1976-07-05,193.86446
1976-07-06,193.86446
1976-07-07,193.86446
1976-07-08,193.86446
1976-07-09,193.86446
1976-07-10,193.86446
1976-07-11,193.86446
1976-07-12,193.86446
1976-07-13,193.86446
1976-07-14,193.86446
1976-07-15,193.86446
1976-07-16,193.86446
1976-07-17,193.86446
1976-07-18,193.86446
1976-07-19,193.86446
1976-07-20,193.86446
1976-07-21,193.86446
1976-07-22,193.86446
1976-07-23,193.86446
1976-07-24,193.86446
1976-07-25,193.86446
1976-07-26,265.20992
1976-07-27,265.20992
1976-07-28,265.20992
1976-07-29,265.20992
1976-07-30,265.20992
1976-07-31,265.20992
1976-08-01,265.20992
1976-08-02,265.20992
1976-08-03,265.20992
1976-08-04,265.20992
1976-08-05,265.20992
1976-08-06,265.20992
1976-08-07,265.20992
1976-08-08,265.20992
1976-08-09,265.20992
1976-08-10,265.20992
1976-08-11,265.20992
1976-08-12,265.20992
1976-08-13,265.20992
1976-08-14,265.20992
1976-08-15,265.20992
1976-08-16,265.20992
1976-08-17,265.20992
1976-08-18,265.20992
1976-08-19,265.20992
1976-08-20,265.20992
1976-08-21,265.20992
1976-08-22,265.20992
1976-08-23,265.20992
1976-08-24,265.20992
1976-08-25,265.20992
1976-08-26,265.20992
1976-08-27,265.20992
1976-08-28,265.20992
1976-08-29,265.20992
1976-08-30,265.20992
1976-08-31,265.20992
1976-09-01,265.20992
1976-09-02,148.7405
1976-09-03,148.7405
1976-09-04,148.7405
1976-09-05,148.7405
1976-09-06,148.7405
1976-09-07,148.7405
1976-09-08,148.7405
1976-09-09,148.7405
1976-09-10,148.7405
1976-09-11,148.7405
1976-09-12,148.7405
1976-09-13,148.7405
1976-09-14,148.7405
1976-09-15,148.7405
1976-09-16,148.7405
1976-09-17,148.7405
1976-09-18,148.7405
1976-09-19,148.7405
1976-09-20,148.7405
1976-09-21,148.7405
1976-09-22,148.7405
1976-09-23,148.7405
1976-09-24,148.7405
1976-09-25,148.7405
1976-09-26,27.35207
1976-09-27,27.35207
1976-09-28,27.35207
1976-09-29,27.35207
1976-09-30,27.35207
1976-10-01,27.35207
1976-10-02,27.35207
1976-10-03,27.35207
1976-10-04,27.35207
1976-10-05,27.35207
1976-10-06,27.35207
1976-10-07,27.35207
1976-10-08,27.35207
1976-10-09,27.35207
1976-10-10,27.35207
1976-10-11,27.35207
1976-10-12,27.35207
1976-10-13,27.35207
1976-10-14,27.35207
1976-10-15,27.35207
1976-10-16,27.35207
1976-10-17,27.35207
1976-10-18,27.35207
1976-10-19,27.35207
1976-10-20,27.35207
1976-10-21,27.35207
1976-10-22,27.35207
1976-10-23,27.35207
1976-10-24,27.35207
1976-10-25,27.35207
1976-10-26,27.35207
1976-10-27,27.35207
1976-10-28,27.35207
1976-10-29,27.35207
1976-10-30,74.69752
1976-10-31,74.69752
1976-11-01,74.69752
1976-11-02,74.69752
1976-11-03,74.69752
1976-11-04,74.69752
1976-11-05,74.69752
1976-11-06,74.69752
1976-11-07,74.69752
1976-11-08,74.69752
1976-11-09,74.69752
1976-11-10,74.69752
1976-11-11,74.69752
1976-11-12,74.69752
1976-11-13,74.69752
1976-11-14,74.69752
1976-11-15,74.69752
1976-11-16,74.69752
1976-11-17,74.69752
1976-11-18,74.69752
1976-11-19,74.69752
1976-11-20,74.69752
1976-11-21,74.69752
1976-11-22,74.69752
1976-11-23,74.69752
1976-11-24,74.69752
1976-11-25,74.69752
1976-11-26,74.69752
1976-11-27,74.69752
1976-11-28,74.69752
1976-11-29,74.69752
1976-11-30,74.69752
1976-12-01,74.69752
1976-12-02,74.69752
1976-12-03,29.99008
1976-12-04,29.99008
1976-12-05,29.99008
1976-12-06,29.99008
1976-12-07,29.99008
1976-12-08,29.99008
1976-12-09,29.99008
1976-12-10,29.99008
1976-12-11,29.99008
1976-12-12,29.99008
1976-12-13,29.99008
1976-12-14,29.99008
1976-12-15,29.99008
1976-12-16,29.99008
1976-12-17,29.99008
1976-12-18,29.99008
1976-12-19,29.99008
1976-12-20,29.99008
1976-12-21,29.99008
1976-12-22,29.99008
1976-12-23,29.99008
1976-12-24,29.99008
1976-12-25,29.99008
1976-12-26,29.99008
1976-12-27,29.99008
1976-12-28,29.99008
1976-12-29,29.99008
1976-12-30,29.99008
1976-12-31,29.99008
1977-01-01,29.99008
1977-01-02,29.99008
1977-01-03,34.07603
1977-01-04,34.07603
1977-01-05,34.07603
1977-01-06,34.07603
1977-01-07,34.07603
1977-01-08,34.07603
1977-01-09,34.07603
1977-01-10,34.07603
1977-01-11,34.07603
1977-01-12,34.07603
1977-01-13,34.07603
1977-01-14,34.07603
1977-01-15,34.07603
1977-01-16,34.07603
1977-01-17,34.07603
1977-01-18,34.07603
1977-01-19,34.07603
1977-01-20,34.07603
1977-01-21,34.07603
1977-01-22,34.07603
1977-01-23,34.07603
1977-01-24,34.07603
1977-01-25,34.07603
1977-01-26,34.07603
1977-01-27,34.07603
1977-01-28,34.07603
1977-01-29,34.07603
1977-01-30,9.34215
1977-01-31,9.34215
1977-02-01,9.34215
1977-02-02,9.34215
1977-02-03,9.34215
1977-02-04,9.34215
1977-02-05,9.34215
1977-02-06,9.34215
1977-02-07,9.34215
1977-02-08,9.34215
1977-02-09,9.34215
1977-02-10,9.34215
1977-02-11,9.34215
1977-02-12,9.34215
1977-02-13,9.34215
1977-02-14,9.34215
1977-02-15,9.34215
1977-02-16,9.34215
1977-02-17,9.34215
1977-02-18,9.34215
1977-02-19,9.34215
1977-02-20,9.34215
1977-02-21,9.34215
1977-02-22,9.34215
1977-02-23,9.34215
1977-02-24,9.34215
1977-02-25,9.34215
1977-02-26,9.34215
1977-02-27,9.34215
1977-02-28,9.34215
1977-03-01,9.67934
1977-03-02,9.67934
1977-03-03,9.67934
1977-03-04,9.67934
1977-03-05,9.67934
1977-03-06,9.67934
1977-03-07,9.67934
1977-03-08,9.67934
1977-03-09,9.67934
1977-03-10,9.67934
1977-03-11,9.67934
1977-03-12,9.67934
1977-03-13,9.67934
1977-03-14,9.67934
1977-03-15,9.67934
1977-03-16,9.67934
1977-03-17,9.67934
1977-03-18,9.67934
1977-03-19,9.67934
1977-03-20,9.67934
1977-03-21,9.67934
1977-03-22,9.67934
1977-03-23,9.67934
1977-03-24,9.67934
1977-03-25,9.67934
1977-03-26,9.67934
1977-03-27,9.67934
1977-03-28,9.67934
1977-03-29,9.67934
1977-03-30,9.67934
1977-03-31,9.67934
1977-04-01,9.67934
1977-04-02,12.75372
1977-04-03,12.75372
1977-04-04,12.75372
1977-04-05,12.75372
1977-04-06,12.75372
1977-04-07,12.75372
1977-04-08,12.75372
1977-04-09,12.75372
1977-04-10,12.75372
1977-04-11,12.75372
1977-04-12,12.75372
1977-04-13,12.75372
1977-04-14,12.75372
1977-04-15,12.75372
1977-04-16,12.75372
1977-04-17,12.75372
1977-04-18,12.75372
1977-04-19,12.75372
1977-04-20,12.75372
1977-04-21,12.75372
1977-04-22,12.75372
1977-04-23,12.75372
1977-04-24,12.75372
1977-04-25,12.75372
1977-04-26,12.75372
1977-04-27,12.75372
1977-04-28,12.75372
1977-04-29,12.75372
1977-04-30,12.75372
1977-05-01,14.12231
1977-05-02,14.12231
1977-05-03,14.12231
1977-05-04,14.12231
1977-05-05,14.12231
1977-05-06,14.12231
1977-05-07,14.12231
1977-05-08,14.12231
1977-05-09,14.12231
1977-05-10,14.12231
1977-05-11,14.12231
1977-05-12,14.12231
1977-05-13,14.12231
1977-05-14,14.12231
1977-05-15,14.12231
1977-05-16,14.12231
1977-05-17,14.12231
1977-05-18,14.12231
1977-05-19,14.12231
1977-05-20,14.12231
1977-05-21,14.12231
1977-05-22,14.12231
1977-05-23,14.12231
1977-05-24,14.12231
1977-05-25,14.12231
1977-05-26,14.12231
1977-05-27,14.12231
1977-05-28,14.12231
1977-05-29,14.12231
1977-05-30,14.12231
1977-05-31,14.12231
1977-06-01,14.12231
1977-06-02,106.27438
1977-06-03,106.27438
1977-06-04,106.27438
1977-06-05,106.27438
1977-06-06,106.27438
1977-06-07,106.27438
1977-06-08,106.27438
1977-06-09,106.27438
1977-06-10,106.27438
1977-06-11,106.27438
1977-06-12,106.27438
1977-06-13,106.27438
1977-06-14,106.27438
1977-06-15,106.27438
1977-06-16,106.27438
1977-06-17,106.27438
1977-06-18,106.27438
1977-06-19,106.27438
1977-06-20,106.27438
1977-06-21,106.27438
1977-06-22,106.27438
1977-06-23,106.27438
1977-06-24,106.27438
1977-06-25,106.27438
1977-06-26,106.27438
1977-06-27,106.27438
1977-06-28,106.27438
1977-06-29,106.27438
1977-06-30,251.24628
1977-07-01,251.24628
1977-07-02,251.24628
1977-07-03,251.24628
1977-07-04,251.24628
1977-07-05,251.24628
1977-07-06,251.24628
1977-07-07,251.24628
1977-07-08,251.24628
1977-07-09,251.24628
1977-07-10,251.24628
1977-07-11,251.24628
1977-07-12,251.24628
1977-07-13,251.24628
1977-07-14,251.24628
1977-07-15,251.24628
1977-07-16,251.24628
1977-07-17,251.24628
1977-07-18,251.24628
1977-07-19,251.24628
1977-07-20,251.24628
1977-07-21,251.24628
1977-07-22,251.24628
1977-07-23,251.24628
1977-07-24,251.24628
1977-07-25,251.24628
1977-07-26,251.24628
1977-07-27,251.24628
1977-07-28,251.24628
1977-07-29,251.24628
1977-07-30,251.24628
1977-07-31,251.24628
1977-08-01,13.34876
1977-08-02,13.34876
1977-08-03,13.34876
1977-08-04,13.34876
1977-08-05,13.34876
1977-08-06,13.34876
1977-08-07,13.34876
1977-08-08,13.34876
1977-08-09,13.34876
1977-08-10,13.34876
1977-08-11,13.34876
1977-08-12,13.34876
1977-08-13,13.34876
1977-08-14,13.34876
1977-08-15,13.34876
1977-08-16,13.34876
1977-08-17,13.34876
1977-08-18,13.34876
1977-08-19,13.34876
1977-08-20,13.34876
1977-08-21,13.34876
1977-08-22,13.34876
1977-08-23,13.34876
1977-08-24,13.34876
1977-08-25,13.34876
1977-08-26,13.34876
1977-08-27,13.34876
1977-08-28,13.34876
1977-08-29,13.34876
1977-08-30,13.34876
1977-08-31,13.34876
1977-09-01,10.65124
1977-09-02,10.65124
1977-09-03,10.65124
1977-09-04,10.65124
1977-09-05,10.65124
1977-09-06,10.65124
1977-09-07,10.65124
1977-09-08,10.65124
1977-09-09,10.65124
1977-09-10,10.65124
1977-09-11,10.65124
1977-09-12,10.65124
1977-09-13,10.65124
1977-09-14,10.65124
1977-09-15,10.65124
1977-09-16,10.65124
1977-09-17,10.65124
1977-09-18,10.65124
1977-09-19,10.65124
1977-09-20,10.65124
1977-09-21,10.65124
1977-09-22,10.65124
1977-09-23,10.65124
1977-09-24,10.65124
1977-09-25,10.65124
1977-09-26,10.65124
1977-09-27,10.65124
1977-09-28,10.65124
1977-09-29,10.65124
1977-09-30,10.65124
1977-10-01,10.65124
1977-10-02,6.20826
1977-10-03,6.20826
1977-10-04,6.20826
1977-10-05,6.20826
1977-10-06,6.20826
1977-10-07,6.20826
1977-10-08,6.20826
1977-10-09,6.20826
1977-10-10,6.20826
1977-10-11,6.20826
1977-10-12,6.20826
1977-10-13,6.20826
1977-10-14,6.20826
1977-10-15,6.20826
1977-10-16,6.20826
1977-10-17,6.20826
1977-10-18,6.20826
1977-10-19,6.20826
1977-10-20,6.20826
1977-10-21,6.20826
1977-10-22,6.20826
1977-10-23,6.20826
1977-10-24,6.20826
1977-10-25,6.20826
1977-10-26,6.20826
1977-10-27,6.20826
1977-10-28,6.20826
1977-10-29,6.20826
1977-10-30,6.20826
1977-10-31,6.20826
1977-11-01,5.81157
1977-11-02,5.81157
1977-11-03,5.81157
1977-11-04,5.81157
1977-11-05,5.81157
1977-11-06,5.81157
1977-11-07,5.81157
1977-11-08,5.81157
1977-11-09,5.81157
1977-11-10,5.81157
1977-11-11,5.81157
1977-11-12,5.81157
1977-11-13,5.81157
1977-11-14,5.81157
1977-11-15,5.81157
1977-11-16,5.81157
1977-11-17,5.81157
1977-11-18,5.81157
1977-11-19,5.81157
1977-11-20,5.81157
1977-11-21,5.81157
1977-11-22,5.81157
1977-11-23,5.81157
1977-11-24,5.81157
1977-11-25,5.81157
1977-11-26,5.81157
1977-11-27,5.81157
1977-11-28,5.81157
1977-11-29,5.81157
1977-11-30,5.81157
1977-12-01,5.81157
1977-12-02,6.20826
1977-12-03,6.20826
1977-12-04,6.20826
1977-12-05,6.20826
1977-12-06,6.20826
1977-12-07,6.20826
1977-12-08,6.20826
1977-12-09,6.20826
1977-12-10,6.20826
1977-12-11,6.20826
1977-12-12,6.20826
1977-12-13,6.20826
1977-12-14,6.20826
1977-12-15,6.20826
1977-12-16,6.20826
1977-12-17,6.20826
1977-12-18,6.20826
1977-12-19,6.20826
1977-12-20,6.20826
1977-12-21,6.20826
1977-12-22,6.20826
1977-12-23,6.20826
1977-12-24,6.20826
1977-12-25,6.20826
1977-12-26,6.20826
1977-12-27,6.20826
1977-12-28,6.20826
1977-12-29,6.20826
1977-12-30,6.20826
1977-12-31,6.20826
1978-01-01,5.81157
1978-01-02,5.81157
1978-01-03,5.81157
1978-01-04,5.81157
1978-01-05,5.81157
1978-01-06,5.81157
1978-01-07,5.81157
1978-01-08,5.81157
1978-01-09,5.81157
1978-01-10,5.81157
1978-01-11,5.81157
1978-01-12,5.81157
1978-01-13,5.81157
1978-01-14,5.81157
1978-01-15,5.81157
1978-01-16,5.81157
1978-01-17,5.81157
1978-01-18,5.81157
1978-01-19,5.81157
1978-01-20,5.81157
1978-01-21,5.81157
1978-01-22,5.81157
1978-01-23,5.81157
1978-01-24,5.81157
1978-01-25,5.81157
1978-01-26,5.81157